Theta_e
345 343 343 342 342 342 341 340 339 339 339 337 336 339 339 339 341 340 337 335 334 331 326 326 326 327 329 330 331 330 331 333 335 335 336 337 337 338 338 339 339 340 341 341 340 340 340 340 340 341 341 342 343 342 342 341 342 341 339 339 338 335 334 333 334 335 336 338 340 340 341 342 342 342 341 342 341 338 336 335 334 335 336 337 336
344 343 343 343 343 342 340 339 339 339 340 338 336 336 336 336 336 335 334 332 330 327 325 326 327 329 330 330 330 331 333 334 336 337 337 338 338 339 339 339 340 340 341 341 340 340 341 341 340 340 340 340 341 341 341 341 341 340 339 340 340 337 335 334 333 334 335 337 339 341 341 341 341 342 341 341 340 337 334 334 335 337 338 339 337
344 343 342 344 343 342 341 339 339 339 340 339 336 332 332 334 333 333 332 329 327 326 327 328 329 330 329 329 331 332 334 335 337 338 338 339 339 340 340 340 340 340 341 341 341 341 341 341 341 340 339 339 340 340 341 341 341 340 339 340 341 339 337 336 335 334 333 335 337 340 341 340 340 341 341 340 338 335 335 335 336 337 338 339 338
344 343 342 344 344 342 341 339 339 339 340 339 337 333 331 333 333 333 332 329 327 328 329 329 329 328 329 331 332 333 335 337 339 339 339 339 339 340 340 340 340 340 340 340 340 340 341 341 341 341 341 341 340 340 340 341 341 340 340 341 341 340 339 337 336 335 334 333 333 336 338 339 340 341 340 339 337 336 336 336 337 338 338 339 339
343 342 343 344 344 343 342 341 340 340 339 339 339 336 334 334 336 335 333 331 330 330 330 329 329 330 331 332 333 334 337 339 339 339 339 339 340 340 340 340 339 339 338 338 338 339 339 340 340 341 342 342 342 341 340 340 340 340 340 341 341 342 340 337 335 335 335 333 330 332 334 337 340 341 341 340 337 336 337 337 338 339 339 339 339
344 342 343 344 344 343 342 342 341 339 338 339 338 338 337 336 338 336 333 331 330 330 329 329 330 331 332 333 335 337 339 340 339 339 338 339 340 340 340 340 339 338 337 337 337 338 339 339 340 340 341 342 342 341 341 341 342 342 341 341 341 342 342 339 336 334 334 334 332 332 334 337 340 342 342 340 338 337 337 339 338 338 338 339 339
344 344 344 344 344 342 342 342 341 339 337 338 338 339 339 339 339 336 332 330 330 329 329 330 332 333 334 335 337 338 339 339 339 339 339 339 339 339 340 339 339 338 336 336 336 337 338 338 339 340 341 342 341 340 342 343 343 343 342 342 342 342 342 341 338 334 333 334 334 335 336 338 340 342 342 341 338 337 338 339 337 336 337 338 339
345 345 344 343 343 342 343 342 341 339 337 338 338 340 340 340 340 336 332 330 331 330 331 333 335 336 336 336 337 338 338 339 339 338 339 338 338 339 339 339 338 337 336 336 336 336 336 337 339 339 340 340 340 340 342 343 343 342 342 342 342 342 342 342 340 335 332 332 333 335 337 339 341 342 341 341 340 339 339 338 337 337 337 337 339
345 345 344 343 343 343 343 342 342 340 339 338 338 340 340 340 339 335 332 332 332 332 334 336 337 337 336 337 337 338 338 338 338 338 338 337 338 339 339 338 337 336 335 335 335 335 335 336 337 339 339 339 340 340 342 342 342 342 342 343 342 343 342 342 342 336 332 332 332 334 336 338 340 342 341 341 341 340 339 337 337 338 337 336 338
345 345 344 343 343 343 343 342 341 340 339 338 338 339 339 339 337 335 333 332 332 333 335 337 337 337 336 337 338 338 337 338 337 339 338 336 337 338 338 338 337 335 334 334 334 335 335 336 337 338 339 339 339 340 341 341 341 342 342 342 343 343 342 341 342 338 334 333 333 334 335 336 338 340 341 341 341 340 339 338 338 338 337 336 336
344 345 344 343 343 343 343 343 341 340 339 339 339 339 339 337 336 335 334 332 333 334 335 336 336 337 337 337 337 337 337 337 337 338 337 335 336 338 338 338 337 335 334 333 333 333 334 336 337 338 338 339 339 340 341 341 341 342 342 342 342 342 342 341 341 341 337 334 334 334 335 337 337 339 340 340 340 339 339 339 339 338 338 336 335
345 344 343 343 344 344 343 343 341 340 339 338 338 339 338 336 336 335 334 334 333 333 335 336 336 337 337 337 337 338 338 337 336 338 336 334 336 337 338 338 336 334 333 333 333 333 334 336 338 338 338 339 340 340 341 341 341 342 342 342 342 341 341 341 341 342 338 333 333 334 334 336 338 339 340 340 340 340 340 341 341 340 338 337 335
345 344 343 343 344 344 344 343 342 341 339 337 337 338 336 335 336 335 335 335 334 333 335 336 336 338 338 338 338 338 338 337 337 337 334 334 336 337 338 338 335 333 332 334 335 335 336 337 338 338 338 339 339 340 339 340 340 341 342 342 342 341 340 342 343 341 338 331 331 335 334 334 337 340 340 340 340 340 340 341 341 340 339 338 336
344 344 343 342 343 344 344 344 343 341 339 338 337 336 334 334 334 335 335 334 333 333 334 335 337 337 338 338 338 339 338 336 336 335 333 335 336 336 338 338 335 333 333 335 336 337 337 338 338 338 338 339 338 339 338 338 340 342 342 341 342 342 340 341 343 342 339 334 331 334 335 334 335 339 340 340 340 340 340 340 340 340 339 338 337
343 343 341 341 343 343 343 343 343 342 341 340 338 336 334 333 334 334 334 332 332 333 333 335 337 337 337 338 339 340 338 335 336 334 333 335 336 336 338 338 336 334 335 336 337 337 338 339 339 338 338 339 339 339 339 339 340 342 342 342 342 342 340 340 342 343 340 335 332 332 334 335 335 338 340 340 340 341 341 340 339 339 339 338 338
342 342 340 340 342 343 343 344 344 343 343 342 340 338 335 334 334 333 333 332 332 334 333 335 337 337 337 338 338 339 336 335 335 334 333 336 336 337 339 338 336 335 336 338 338 338 338 339 339 339 339 339 339 340 340 340 340 341 343 343 342 342 340 340 341 342 340 336 333 333 333 335 336 338 339 340 340 340 340 340 338 338 338 338 338
342 342 341 339 339 341 343 344 345 344 343 342 341 340 338 336 335 334 334 333 334 335 334 336 338 338 338 338 338 337 334 334 335 333 334 336 336 337 339 338 336 335 336 338 339 339 339 339 339 339 339 339 339 340 341 341 341 342 342 343 342 341 341 340 341 341 341 337 334 334 333 334 336 339 339 340 340 339 339 338 337 337 337 337 338
343 342 342 341 339 339 342 345 345 345 344 343 342 342 341 340 339 337 337 336 336 336 337 338 338 338 339 339 338 336 332 333 334 333 334 337 337 338 340 338 336 335 335 336 338 340 340 340 341 342 342 341 340 341 341 341 342 342 341 341 341 341 342 342 342 341 341 340 336 334 334 333 335 339 339 340 339 338 338 337 336 336 336 336 338
343 343 343 342 341 341 342 344 345 345 344 343 343 344 343 341 340 339 338 338 337 338 339 340 339 339 340 339 338 335 332 333 334 333 335 338 337 338 340 340 336 335 335 335 337 340 341 341 343 344 344 342 341 341 341 341 341 341 340 340 339 340 341 342 342 341 341 340 339 337 335 334 334 337 339 340 340 339 337 336 334 335 336 336 337
343 343 343 343 343 343 343 344 346 345 344 343 343 344 344 341 340 339 339 339 338 339 340 340 340 340 340 340 337 334 332 333 334 334 336 337 337 338 340 340 338 334 334 335 337 341 342 343 344 345 345 344 342 342 342 342 341 341 341 340 338 339 341 341 341 341 341 341 340 339 336 336 335 335 338 340 340 339 337 336 334 334 336 337 337
344 344 344 344 344 343 344 345 345 345 344 343 343 344 344 342 340 340 340 340 339 340 340 340 340 340 340 339 335 332 332 333 334 335 337 337 337 337 339 340 339 335 334 335 338 343 344 344 344 345 346 345 344 343 342 342 341 341 342 341 340 341 342 342 342 340 340 340 340 340 338 337 336 336 337 339 340 339 338 337 335 334 336 337 337
344 345 344 344 345 344 345 345 345 345 343 342 343 343 343 342 341 340 341 340 340 340 340 340 340 340 339 337 332 331 332 333 334 336 338 338 337 338 340 341 339 337 336 338 341 343 344 345 345 345 345 345 344 341 340 339 338 338 340 342 342 343 343 343 343 341 341 340 339 340 339 338 338 337 337 337 339 339 339 339 337 336 336 336 336
346 346 346 346 346 345 345 345 344 343 342 342 343 342 341 341 340 340 341 340 340 340 340 340 340 339 336 333 331 332 333 335 338 339 339 338 338 341 343 342 340 339 340 342 345 345 345 344 344 345 345 344 343 340 337 337 336 337 338 340 341 339 339 342 344 343 343 341 339 340 340 340 340 339 339 337 338 338 339 339 338 338 337 336 336
346 346 347 347 346 346 344 342 342 341 340 340 341 340 340 340 340 340 340 339 339 340 339 339 338 335 332 331 332 334 335 338 341 340 339 338 340 344 344 342 340 341 343 345 346 346 345 344 343 343 344 343 342 339 337 337 337 337 338 339 339 338 338 339 342 344 344 343 341 341 340 340 340 341 340 339 338 337 337 339 339 338 338 337 337
343 344 345 345 344 343 341 340 339 339 338 337 338 338 339 339 339 339 339 338 337 337 337 335 333 331 331 332 335 337 338 339 341 340 339 338 341 345 345 343 341 342 344 345 346 346 346 345 343 342 342 342 341 339 338 339 338 338 338 338 339 339 339 338 338 341 344 343 343 342 340 339 339 340 341 341 339 337 336 337 338 338 338 338 338
341 342 342 342 341 340 339 339 338 337 337 336 338 338 339 339 338 338 337 336 335 334 333 332 331 331 333 335 337 339 337 338 341 341 341 340 342 345 346 344 343 344 345 345 346 346 345 344 343 341 340 341 340 339 338 339 339 338 337 337 339 339 339 339 338 338 340 340 340 339 339 340 339 340 341 341 341 339 337 337 337 338 337 337 338
340 340 340 340 340 340 339 339 338 337 338 338 339 340 340 339 337 337 336 335 333 332 332 331 332 333 334 336 339 339 337 339 341 341 342 343 343 345 346 345 345 346 346 346 346 346 345 344 343 342 341 340 339 338 339 339 339 338 337 337 338 338 337 338 338 338 337 337 337 336 337 338 339 340 341 341 341 341 340 338 336 337 337 337 337
340 339 339 339 339 340 340 339 338 338 339 340 340 340 340 339 337 336 336 334 333 332 332 332 334 334 334 336 340 341 339 341 343 343 345 345 345 346 346 346 347 346 346 346 346 345 345 344 344 343 342 340 337 337 339 339 338 337 337 337 337 337 336 336 337 338 337 337 336 335 335 335 338 339 340 341 341 342 341 340 337 336 337 336 336
339 339 338 339 339 340 339 339 339 339 339 340 340 339 339 338 337 336 335 334 333 332 333 334 335 334 335 337 340 342 341 342 344 345 346 346 346 346 347 347 347 347 347 346 346 345 344 344 345 343 342 342 338 337 340 339 338 337 336 337 338 337 336 335 336 337 338 338 336 334 333 333 336 338 338 340 342 342 342 341 340 338 338 337 337
338 339 339 339 340 340 340 339 338 339 339 339 339 338 338 337 336 335 334 334 333 333 334 335 336 336 337 339 341 342 342 344 345 346 347 347 346 347 347 347 346 346 347 347 346 346 345 344 344 343 343 344 339 338 341 339 339 337 335 336 337 337 337 336 335 336 337 338 337 335 334 333 333 336 338 340 341 342 342 341 341 340 339 338 338
338 339 339 340 341 340 340 339 339 339 339 339 338 338 337 336 335 334 334 334 333 333 335 336 337 338 340 340 341 342 343 345 346 347 347 347 347 347 347 346 345 346 346 346 346 345 345 344 345 344 344 344 340 338 340 340 338 337 337 336 336 337 337 336 335 335 336 337 338 337 336 335 333 334 337 338 340 341 341 341 342 341 341 340 339
338 339 340 340 341 340 339 339 339 340 340 339 339 338 336 335 335 334 334 334 334 334 335 337 338 339 341 341 341 342 344 346 347 347 347 348 348 347 347 346 345 345 346 346 346 345 345 345 345 345 345 344 340 338 340 339 338 338 338 336 336 338 338 336 335 335 336 336 337 338 337 337 334 333 334 335 339 341 341 341 342 342 341 341 341
338 338 340 340 340 340 340 339 339 339 339 339 339 338 336 335 335 335 335 336 336 336 336 336 338 340 341 342 342 342 343 344 346 347 348 348 348 347 346 345 345 346 346 346 346 345 346 346 346 345 345 345 341 339 339 339 338 337 335 334 335 337 337 337 335 335 335 335 336 338 338 338 337 336 334 333 335 338 341 342 342 342 341 341 340
340 339 340 340 341 341 339 339 339 339 339 339 340 339 337 336 337 336 337 338 338 338 338 337 338 341 344 344 343 343 343 343 344 345 347 347 348 347 345 344 345 345 346 346 346 347 346 346 347 346 345 345 343 340 340 339 338 334 332 334 335 336 337 336 335 334 334 335 336 338 338 338 338 337 336 335 333 334 338 340 342 342 341 340 340
341 340 340 341 341 341 340 338 338 339 339 340 341 341 339 337 338 339 339 340 340 339 340 340 340 344 346 346 345 345 346 346 344 343 344 346 346 345 345 344 344 344 345 346 346 346 347 348 348 347 346 345 344 342 341 340 339 334 331 335 336 336 337 337 336 336 335 336 337 338 338 337 337 337 337 337 335 334 334 336 339 341 341 340 341
342 341 341 342 342 342 340 338 338 339 339 340 342 342 341 338 338 341 341 341 342 341 342 344 345 346 346 347 347 347 349 349 346 344 344 345 345 344 345 345 343 343 344 345 346 346 347 348 348 348 347 347 345 342 342 340 339 335 330 334 336 335 337 337 337 337 337 338 338 338 338 337 336 336 337 337 337 337 335 333 333 337 339 340 340
342 341 341 342 342 342 340 339 339 339 339 341 343 343 343 341 338 340 343 343 343 343 343 345 346 347 347 347 349 349 349 350 349 348 347 347 346 345 344 344 343 343 344 344 345 346 347 348 348 348 347 347 346 344 343 340 339 337 331 332 337 337 337 337 337 337 338 338 338 338 337 336 335 333 334 336 337 339 339 336 333 334 337 338 338
342 340 340 341 341 341 340 340 340 340 340 341 343 343 343 343 340 340 343 345 344 344 344 344 345 346 346 346 348 349 349 349 350 350 350 349 348 346 344 343 343 343 343 343 344 345 347 347 348 348 348 347 346 345 343 340 339 338 334 331 333 338 338 337 337 336 338 338 338 338 336 336 335 332 331 331 333 337 339 339 336 334 334 335 336
344 342 341 340 341 341 340 340 341 342 342 341 342 343 343 344 343 342 344 346 345 344 344 343 343 344 344 344 347 349 350 350 351 351 351 350 349 346 344 343 343 343 343 343 345 346 347 347 347 347 347 347 346 345 343 340 338 338 337 332 330 336 339 338 337 336 338 338 337 337 337 336 334 333 331 328 329 331 333 336 338 336 335 333 334
347 344 343 342 343 343 342 341 341 342 343 343 342 343 343 344 344 344 345 346 346 345 344 343 343 343 342 343 346 349 350 351 351 352 351 350 348 346 344 343 343 343 344 345 346 347 347 346 347 347 347 347 346 344 342 341 338 333 333 331 330 334 337 336 335 335 337 338 337 336 337 336 334 332 330 328 328 328 328 332 336 336 336 335 333
350 348 346 345 345 344 343 342 342 342 343 343 342 342 342 343 344 344 344 344 345 345 344 344 343 344 344 344 346 348 350 351 352 352 352 350 349 346 344 343 343 344 344 346 347 347 347 346 347 347 347 346 345 344 343 340 334 326 326 329 332 335 336 335 334 334 336 338 336 335 336 336 334 331 329 327 326 326 326 328 329 331 333 334 334
352 351 349 348 346 346 345 343 342 341 341 342 341 340 340 341 341 342 342 342 343 344 343 342 343 344 346 346 347 348 350 352 352 352 352 351 350 347 346 344 344 344 345 346 347 347 346 346 346 346 346 346 344 343 340 334 328 325 326 329 333 336 336 337 336 335 336 337 336 334 336 336 333 330 328 326 326 324 324 325 326 326 327 328 330
352 351 351 350 349 348 347 345 343 341 340 341 341 340 339 340 340 341 341 341 341 342 343 343 343 344 346 348 348 349 351 352 352 352 352 351 351 349 347 345 345 345 345 346 347 346 346 345 346 346 346 345 342 336 330 328 329 330 330 332 335 336 337 338 338 338 338 337 335 335 336 336 332 330 328 327 326 324 323 323 322 322 322 323 324
351 352 351 351 351 350 349 347 344 342 340 339 340 340 339 339 340 341 340 341 341 342 344 345 345 346 346 347 348 348 350 351 351 351 351 351 350 349 347 346 346 345 345 346 346 346 345 345 345 345 345 342 335 328 326 331 335 336 335 336 337 337 338 338 338 338 338 336 335 335 336 335 331 329 328 326 325 323 322 320 320 323 324 323 321
351 351 351 350 350 350 350 348 345 343 341 340 340 341 341 340 341 343 344 345 345 345 346 346 345 346 347 346 346 347 348 349 350 349 350 351 350 349 347 347 347 346 345 345 345 345 343 343 343 343 343 337 328 326 329 333 337 338 337 337 337 337 337 338 338 337 337 337 336 336 336 334 331 329 327 326 325 324 322 322 324 326 327 326 321
351 350 350 350 349 350 350 350 347 346 344 342 341 341 341 341 341 343 345 346 346 344 343 343 344 345 346 346 345 344 345 346 347 347 349 350 350 349 349 349 348 346 345 344 344 343 341 341 340 339 337 330 326 330 331 333 336 337 337 337 337 337 337 338 338 336 335 337 337 337 336 333 330 329 327 326 326 325 325 326 328 329 328 326 322
350 350 349 349 350 350 350 350 349 348 346 345 344 343 343 342 341 341 341 342 342 340 339 340 342 343 345 346 345 344 342 342 344 345 348 349 350 351 350 350 349 346 344 343 342 339 338 338 336 332 329 326 328 332 333 332 334 335 335 336 336 337 337 338 337 335 334 336 337 337 335 332 330 329 327 327 327 327 327 328 329 330 329 328 326
350 350 349 349 350 350 350 350 350 349 348 347 346 346 346 346 344 342 340 339 338 337 337 339 340 343 345 345 344 342 341 341 342 345 348 350 351 351 351 350 348 346 343 341 339 336 335 335 332 327 325 326 329 333 334 332 332 333 334 335 335 336 337 338 337 335 333 335 336 335 334 332 330 328 327 327 328 327 327 328 330 331 330 330 330
349 349 349 349 349 350 350 349 350 350 350 349 347 346 347 348 347 345 343 341 338 337 337 338 339 342 343 342 341 340 340 340 341 346 350 351 352 352 351 349 348 346 343 339 336 334 333 333 330 326 324 327 329 331 334 333 331 330 331 333 334 335 337 338 337 335 333 333 334 334 332 331 330 328 327 328 328 328 328 329 331 331 331 331 331
349 349 348 349 349 350 350 350 350 350 350 350 349 349 348 349 350 349 347 345 343 341 339 339 339 339 340 339 339 338 339 341 343 347 351 352 352 352 351 349 347 346 342 338 334 331 332 331 329 328 327 327 329 331 333 334 332 330 329 330 332 334 337 337 337 336 335 334 333 332 331 331 330 329 328 328 329 328 328 330 331 331 331 331 331
349 349 348 349 350 350 350 350 350 349 350 350 350 350 350 350 350 349 349 348 347 346 344 341 340 339 339 337 337 338 341 343 345 349 351 352 352 351 350 348 346 344 340 336 332 328 329 329 328 331 331 329 329 331 333 335 334 332 330 328 329 333 336 336 336 336 335 334 333 332 331 331 331 330 328 328 329 329 328 330 332 332 332 331 331
Wind_Speed
25 27 28 29 28 27 25 25 24 23 23 24 25 25 26 27 27 27 26 23 24 25 26 26 25 23 21 20 18 17 17 17 16 15 14 14 13 13 13 13 13 13 13 13 13 13 12 12 11 11 10 9 9 9 8 7 7 7 7 8 8 8 8 8 8 9 9 9 9 10 10 11 12 12 12 11 9 8 9 9 11 12 13 13 12
27 28 28 29 28 28 26 25 24 23 23 24 24 25 26 27 27 26 25 24 25 26 26 25 23 21 20 19 18 17 17 16 15 14 14 13 13 13 13 13 13 13 12 12 12 12 11 11 11 10 9 9 9 8 8 7 7 7 7 8 9 8 9 9 9 9 9 9 10 10 10 10 11 11 11 10 10 9 10 11 12 12 13 13 13
29 29 28 29 29 28 27 25 24 24 23 23 24 25 26 26 27 26 26 26 27 26 25 23 21 20 19 18 17 17 16 16 15 14 13 12 13 13 13 12 12 12 11 11 11 11 10 11 10 9 9 9 9 9 8 8 8 7 8 9 9 9 9 10 9 10 9 9 10 10 10 11 10 10 10 10 10 11 11 11 12 12 12 13 13
30 30 29 29 29 28 27 26 25 24 24 24 24 25 26 26 26 26 26 27 27 25 23 22 20 19 18 17 17 16 15 15 14 13 12 12 12 12 12 12 12 11 10 10 9 9 9 9 10 9 9 9 9 9 8 8 8 8 8 9 9 9 9 10 10 10 10 9 9 10 11 11 11 10 10 11 11 11 11 11 12 12 12 12 13
31 31 29 28 28 28 26 26 25 25 24 24 24 25 26 26 26 26 26 26 25 24 22 20 19 18 17 17 16 15 15 14 13 13 12 12 12 12 12 12 11 11 10 9 9 8 8 8 9 9 9 9 9 8 8 8 8 8 8 9 9 9 9 10 10 10 10 10 9 10 11 11 11 11 11 11 11 11 11 12 12 12 12 12 12
31 31 29 28 28 27 27 26 25 25 25 25 25 26 26 26 26 25 26 25 24 22 20 19 18 17 17 16 15 14 14 13 13 12 12 12 11 11 11 11 11 10 10 9 9 8 7 7 8 8 8 9 8 7 7 8 8 9 8 9 9 9 10 10 10 10 10 10 9 10 11 10 11 12 12 13 11 11 11 12 12 11 11 11 12
31 31 29 28 28 28 27 26 26 25 25 25 26 26 26 25 25 25 25 24 22 20 18 17 17 17 16 16 15 14 13 12 12 11 11 11 11 11 10 10 9 9 9 9 9 8 8 7 7 7 8 8 8 7 7 8 8 9 9 9 8 8 10 10 10 11 11 11 10 10 10 10 11 12 12 13 12 11 11 11 11 11 11 11 11
32 31 30 29 28 28 27 26 26 25 25 25 26 26 25 24 23 24 24 23 21 18 17 16 16 16 15 15 14 13 12 12 11 10 10 10 10 10 9 9 8 8 9 9 9 9 8 8 7 8 8 8 7 6 8 8 7 8 9 9 8 8 9 10 10 11 11 11 11 11 10 10 11 11 12 13 12 12 11 11 11 11 11 11 10
32 31 31 30 29 28 27 27 26 26 25 25 25 25 24 23 23 23 23 21 19 17 15 15 15 15 14 14 13 12 11 11 10 9 9 9 9 9 9 9 9 9 9 9 9 9 9 9 8 8 9 9 7 7 8 8 7 7 8 8 8 8 9 10 11 11 12 12 13 12 11 10 10 11 11 12 11 12 11 11 11 11 11 10 10
32 31 30 29 29 28 27 27 26 26 25 25 25 24 23 23 22 22 21 19 18 16 14 14 14 13 13 13 12 11 11 10 9 9 8 9 9 9 9 10 10 10 10 10 10 10 10 9 9 9 9 9 8 7 7 7 7 6 6 7 8 8 9 9 10 11 12 12 13 13 11 10 10 11 11 10 11 11 11 10 11 11 10 10 10
32 31 30 29 28 27 27 27 26 25 25 24 24 23 22 22 21 20 19 18 17 15 14 13 12 12 12 12 11 10 10 9 8 8 7 9 9 10 10 11 11 10 10 10 10 10 10 10 10 9 9 10 9 7 7 7 7 6 5 6 7 8 8 8 9 11 11 11 12 13 12 10 10 10 10 9 10 10 10 11 11 10 10 10 10
32 31 31 29 28 27 27 26 26 25 24 24 23 23 22 22 21 19 18 17 16 14 13 13 12 11 11 11 10 9 9 8 8 7 7 8 10 10 11 12 12 11 11 11 11 11 11 11 10 10 10 10 9 8 7 6 7 7 6 6 7 7 7 8 8 10 9 10 10 11 12 11 10 9 10 9 9 10 10 11 11 10 10 10 10
32 31 31 30 29 27 27 25 26 25 24 24 23 23 22 22 20 19 18 16 15 14 13 12 11 11 10 10 10 9 8 8 8 7 7 8 9 10 11 12 12 12 12 12 12 12 11 11 11 11 11 10 10 9 8 7 7 8 7 7 7 6 7 8 9 9 9 9 9 10 11 11 10 10 10 10 10 10 10 10 10 10 10 10 10
33 32 31 31 29 27 26 25 25 24 24 23 22 22 21 21 19 18 17 15 14 13 13 12 11 10 10 10 10 9 8 8 8 7 7 8 9 10 11 11 12 12 13 13 13 13 12 11 10 10 10 10 10 9 9 8 8 8 8 7 7 6 7 8 9 10 8 8 9 9 10 10 10 10 10 10 10 10 10 10 10 9 9 10 10
32 32 31 31 29 27 26 24 24 23 22 22 21 21 21 20 19 18 16 15 13 12 12 12 12 10 10 10 9 9 7 8 8 7 7 8 9 9 10 10 11 12 13 13 13 13 13 12 11 10 10 9 9 8 9 9 9 8 7 7 7 6 7 7 9 9 7 8 8 8 9 10 10 11 11 11 10 10 10 10 10 9 9 9 10
31 31 30 29 29 28 26 24 24 23 22 21 21 20 20 20 19 18 16 15 13 12 12 13 12 11 10 9 9 8 7 7 7 7 7 8 8 9 9 10 10 12 13 14 13 13 13 12 11 10 9 9 8 8 8 10 10 9 7 7 6 6 6 7 8 9 7 7 7 7 8 9 10 10 11 10 10 11 11 10 10 10 9 10 10
30 30 29 28 28 28 26 25 24 23 22 21 20 19 19 19 18 18 16 15 14 13 13 13 12 11 10 9 9 7 6 6 7 7 7 7 8 8 9 9 10 11 12 13 12 11 12 12 12 11 10 9 9 9 9 9 10 9 8 6 6 6 6 6 7 7 7 7 7 6 7 8 9 10 10 11 10 10 10 10 10 10 10 10 10
30 30 29 28 28 27 27 25 24 23 23 21 20 19 18 18 17 17 16 15 15 14 13 13 12 11 10 9 9 7 6 6 7 7 7 7 8 8 8 8 8 10 11 11 10 10 11 11 11 11 10 10 10 9 9 9 9 9 8 6 6 6 6 6 6 6 6 6 6 6 6 7 8 9 10 10 10 10 10 10 10 10 10 10 9
31 31 29 28 28 27 27 25 25 24 23 21 20 19 18 18 17 17 16 16 15 15 14 13 12 11 10 10 9 8 7 7 7 7 7 7 7 7 7 7 7 9 9 9 9 9 9 9 9 10 10 9 9 9 9 9 9 8 7 6 6 6 6 5 6 6 6 5 5 5 5 7 8 9 9 10 11 10 9 9 9 10 10 10 9
31 31 30 29 28 27 27 26 25 24 23 22 20 20 18 18 18 17 16 16 15 15 14 12 12 11 11 10 9 9 8 8 8 8 7 7 7 7 6 6 6 8 8 7 7 8 9 8 7 9 9 8 8 8 9 9 8 7 6 5 6 6 5 5 5 5 6 5 5 5 5 6 8 9 9 9 10 10 9 9 9 9 10 10 10
30 31 30 29 28 27 27 25 26 24 23 22 21 21 20 19 18 17 16 16 16 15 14 13 12 12 11 11 10 10 9 9 9 8 7 7 7 7 6 5 6 8 8 7 7 8 9 8 7 8 8 7 6 7 8 8 8 7 5 5 5 5 4 4 4 5 5 4 4 5 6 6 7 9 9 9 9 10 10 9 9 9 9 10 10
31 30 29 29 28 27 27 26 26 24 23 22 22 22 21 20 19 18 17 17 16 15 15 14 13 13 12 12 11 11 10 9 8 7 7 6 6 6 5 5 6 7 8 8 7 8 8 7 6 6 6 6 6 6 7 8 8 8 7 5 5 5 4 4 4 5 4 3 4 5 6 6 7 8 9 9 9 9 10 10 10 9 9 9 10
32 32 29 29 28 28 27 26 26 24 24 23 23 23 22 22 21 20 19 18 17 16 16 15 15 14 13 12 12 11 10 10 8 7 7 6 6 6 5 5 6 7 8 8 7 7 6 6 6 5 4 5 6 5 6 8 9 9 9 7 7 7 5 5 5 5 3 3 4 4 5 7 8 9 9 9 9 9 9 10 10 10 9 9 9
34 33 31 31 30 29 27 26 26 25 25 24 24 24 23 22 21 21 19 19 18 17 17 16 15 14 13 12 12 11 10 10 8 8 7 6 6 6 6 6 7 7 8 8 7 6 5 5 5 4 4 4 5 6 7 7 8 8 8 8 7 7 7 5 5 5 4 5 4 3 3 5 7 8 9 9 9 9 9 9 10 10 10 9 9
35 33 33 32 31 29 27 27 26 25 25 25 24 24 23 22 22 21 19 19 18 18 17 16 15 15 14 13 12 11 10 10 8 7 7 7 7 7 7 7 7 7 7 7 6 6 5 4 4 5 4 3 3 5 6 6 6 6 6 6 5 5 5 6 5 5 6 5 3 2 2 3 5 7 8 8 9 9 9 9 9 10 10 10 9
35 34 34 32 31 29 27 27 26 26 25 24 24 23 23 22 21 21 19 19 18 17 17 16 16 15 15 14 13 12 11 10 8 7 7 8 8 7 8 8 8 7 7 6 6 5 4 3 3 4 4 2 2 4 5 5 4 4 4 4 4 3 3 4 5 5 5 5 3 3 2 3 3 5 7 8 8 9 9 9 10 10 10 10 10
36 35 34 32 31 29 28 28 27 26 25 25 24 23 22 21 21 20 20 20 19 18 18 17 17 16 15 14 13 12 11 10 9 8 7 8 9 8 8 8 8 8 7 6 5 5 3 1 3 4 3 2 3 4 5 5 4 3 3 2 3 3 4 3 4 5 5 5 4 2 2 3 4 5 6 7 8 9 10 10 10 10 10 10 10
36 35 34 32 31 30 29 28 27 27 26 25 25 23 22 21 21 21 21 20 20 19 18 18 17 16 16 14 13 12 11 10 9 8 7 8 9 8 8 8 8 8 7 6 5 4 2 1 3 4 2 2 4 5 5 4 4 4 3 2 2 2 3 4 3 4 5 5 4 3 2 2 4 5 6 7 8 9 10 10 10 10 10 10 10
36 36 34 33 32 30 30 29 28 27 26 26 25 24 23 22 23 22 22 21 21 20 18 18 17 17 16 14 13 12 11 11 10 8 7 8 9 9 8 7 7 7 7 5 5 4 2 1 1 2 1 2 5 6 6 4 3 3 2 1 1 1 2 3 2 2 2 3 4 4 3 2 3 5 6 7 8 9 10 10 10 10 11 10 10
36 35 34 33 31 30 30 29 29 27 27 26 25 25 24 24 24 23 22 21 21 20 19 19 18 17 15 14 13 12 11 11 10 9 8 9 10 10 9 8 7 7 7 6 5 5 3 2 1 1 1 3 6 7 6 4 4 3 1 1 0 1 1 2 3 2 1 2 3 4 4 3 2 4 6 7 8 8 9 11 11 10 11 11 11
36 35 34 33 31 31 31 30 29 27 27 27 26 25 25 25 24 23 22 21 21 20 20 19 18 17 15 15 14 12 12 11 11 9 8 9 10 10 10 9 8 7 7 6 6 5 4 3 3 2 2 4 8 9 7 5 5 4 1 2 3 2 0 1 4 4 2 3 4 3 2 3 2 2 4 6 7 8 9 11 11 11 11 12 12
37 36 34 33 32 32 31 30 29 28 28 27 26 26 25 24 24 23 22 21 21 21 21 19 19 17 15 15 14 13 13 12 11 10 9 9 9 9 10 9 8 8 7 6 6 5 5 4 4 4 3 4 9 11 8 6 5 4 3 3 4 3 2 2 4 4 4 4 6 4 2 1 2 2 2 5 7 8 9 10 10 10 10 11 11
37 36 34 33 33 31 31 31 30 29 29 27 27 26 25 24 24 24 22 22 21 21 21 20 19 17 15 15 15 14 13 13 12 11 10 10 9 9 9 8 7 8 7 7 7 6 6 5 5 6 5 5 10 12 10 8 5 4 4 4 5 5 4 4 3 4 5 6 7 5 3 1 1 1 1 1 4 7 8 8 7 8 9 9 11
37 37 36 34 33 32 32 31 31 30 29 28 27 26 25 25 25 24 22 22 22 21 21 20 19 17 16 16 15 14 13 13 13 12 11 11 10 10 8 8 8 8 8 8 8 8 7 7 7 7 6 7 10 12 11 10 7 4 4 3 5 5 4 3 2 3 4 6 7 5 3 2 2 1 0 1 1 4 6 6 6 8 9 9 11
37 37 36 35 33 33 33 32 32 31 30 29 28 27 26 25 25 23 23 22 22 22 21 20 19 17 17 16 15 14 13 13 13 13 12 12 11 11 9 9 9 9 10 10 10 9 8 8 9 8 7 8 10 13 12 11 8 5 4 4 5 5 2 2 2 4 5 6 7 6 3 2 1 0 1 1 1 2 4 5 6 8 9 10 11
37 36 36 35 34 34 33 33 32 31 31 30 28 27 26 26 25 23 23 22 22 22 21 20 19 19 18 17 15 14 13 12 13 13 13 12 12 12 11 11 10 10 11 12 12 11 10 10 10 9 9 9 10 13 13 12 9 6 5 6 5 5 3 1 1 3 5 7 7 6 4 3 3 2 1 0 1 2 4 5 6 8 9 11 11
36 35 35 35 35 35 34 33 32 31 31 30 29 27 26 25 25 24 23 23 23 22 21 21 20 20 19 17 16 15 13 12 12 13 12 12 13 13 13 12 12 12 12 13 13 12 12 12 11 10 10 10 11 14 14 13 11 8 6 7 6 5 4 2 1 2 6 8 7 5 3 3 4 5 4 2 0 2 3 5 6 8 9 10 10
35 35 35 35 35 35 34 33 32 31 31 31 29 28 27 25 25 24 23 23 24 23 21 21 21 21 19 18 16 15 14 13 13 13 13 13 14 14 14 13 13 13 14 14 13 13 13 12 12 11 11 10 11 14 15 13 12 10 8 7 7 5 4 4 3 3 4 7 6 4 2 2 4 5 6 5 3 1 2 3 5 7 9 10 10
35 35 35 34 35 34 34 33 33 32 31 31 30 28 27 26 25 25 24 24 24 23 22 22 21 20 19 18 16 15 14 13 13 13 13 13 14 15 14 14 14 14 14 14 14 14 14 13 11 11 10 10 11 14 15 13 12 11 10 9 9 7 5 5 5 5 4 4 4 3 2 0 3 5 6 6 4 2 2 2 2 4 7 8 9
34 35 35 35 35 35 35 34 34 33 32 32 31 30 29 28 27 26 27 27 25 24 23 23 22 21 20 18 17 16 15 14 13 13 12 13 14 14 14 14 14 15 15 14 14 13 13 12 11 10 10 10 11 14 16 15 13 12 12 11 11 9 6 5 6 8 7 6 6 5 4 2 1 4 5 6 4 2 1 2 2 2 3 5 7
34 34 35 36 36 35 36 36 35 34 34 34 34 33 32 30 30 30 30 29 26 25 25 24 24 22 21 19 18 17 16 16 14 14 14 14 14 13 13 14 14 14 14 14 13 13 12 11 11 10 10 10 12 14 15 15 14 12 12 12 11 9 7 6 6 8 9 9 8 7 6 4 1 2 4 5 5 3 1 0 2 2 3 3 4
37 36 36 35 35 35 36 37 36 36 36 35 35 34 34 33 32 31 30 29 28 27 26 25 24 22 21 20 19 19 17 17 16 15 15 15 15 15 15 15 14 14 13 14 14 14 13 12 12 11 11 12 12 14 15 14 12 11 11 11 10 9 8 6 6 7 9 10 10 9 7 5 3 1 3 5 5 4 2 1 0 1 2 3 4
39 38 37 35 35 35 35 36 36 38 37 37 36 35 35 33 32 31 30 29 28 27 26 25 23 22 21 21 20 20 19 18 17 16 16 16 17 16 16 15 15 14 14 15 15 14 13 12 12 11 12 12 13 14 14 12 10 10 11 10 10 9 9 8 8 8 8 10 11 11 9 6 4 2 1 4 5 4 3 2 2 3 3 3 4
41 40 39 38 37 36 36 35 36 38 38 38 38 36 34 34 33 31 29 28 27 26 25 25 25 24 23 22 21 21 20 19 18 17 17 17 17 17 16 16 15 14 14 15 15 13 13 12 12 12 13 13 13 13 12 12 11 10 10 10 10 11 11 10 10 10 8 9 11 11 10 7 5 3 0 3 4 3 3 3 3 5 7 4 3
45 44 42 41 40 39 37 36 36 37 38 39 38 37 35 35 34 32 30 29 28 27 28 29 28 27 25 24 23 22 20 19 19 18 18 18 18 18 17 16 16 15 15 15 14 13 13 13 12 13 13 14 14 14 14 14 13 10 10 10 9 10 11 11 11 10 9 10 11 12 11 9 6 4 1 2 4 4 4 3 4 7 9 6 3
48 46 44 43 42 41 39 37 36 36 37 37 38 38 37 37 37 36 34 33 32 32 32 32 30 28 27 25 23 22 21 20 20 19 19 19 19 19 18 17 16 16 15 15 14 15 14 13 13 14 14 14 14 15 15 15 15 13 12 11 10 10 11 12 12 10 11 12 14 16 14 11 8 6 3 3 4 4 3 2 5 8 9 7 3
50 48 47 46 44 43 41 39 38 37 36 36 36 38 38 38 38 38 37 36 35 34 33 32 30 28 27 25 24 23 22 21 20 20 20 20 20 19 19 18 17 16 16 15 15 16 15 14 14 14 15 16 17 16 14 15 16 15 14 13 12 11 10 12 13 11 12 15 17 18 16 13 10 8 5 3 3 3 1 3 5 7 7 8 6
52 51 50 48 47 45 43 41 40 39 38 36 36 38 38 38 38 38 38 37 36 33 32 31 30 29 28 26 25 25 23 22 21 21 21 20 20 20 19 19 18 17 16 16 16 15 15 14 14 14 15 17 18 15 14 16 16 16 16 15 14 13 11 11 14 13 12 15 19 19 17 15 12 9 7 5 4 3 1 3 4 6 6 6 6
53 53 52 50 49 48 45 43 42 42 40 38 38 38 38 38 38 38 38 38 36 34 32 31 30 30 29 27 26 26 25 24 23 22 21 20 20 20 20 19 18 17 17 17 16 15 15 15 14 13 14 17 17 15 15 17 15 14 16 17 16 15 13 12 14 14 13 14 19 21 19 17 15 12 9 7 6 5 4 3 4 4 5 5 5
55 54 53 52 51 50 48 46 45 43 42 41 40 39 39 39 39 38 38 38 37 35 34 33 32 31 30 29 27 26 26 25 24 23 22 21 21 20 20 20 18 18 18 17 17 16 16 16 15 13 13 15 16 16 15 16 15 13 14 16 17 17 16 15 15 15 15 14 17 20 20 19 17 13 11 9 8 7 6 5 5 5 5 5 5
55 55 54 53 53 52 51 49 47 45 44 43 41 40 40 41 41 40 39 38 37 36 36 36 35 33 32 30 28 27 26 25 24 24 23 22 22 21 20 19 19 19 18 18 17 16 16 16 14 13 12 13 14 15 15 16 16 15 14 15 18 19 19 17 16 16 16 15 16 18 19 19 18 15 12 11 9 8 9 8 7 6 6 6 5
Wind_Direction
149 144 140 138 135 135 137 135 135 136 135 136 137 135 136 138 140 142 143 141 139 139 138 137 136 135 132 130 128 127 124 120 116 112 107 104 105 104 102 101 99 98 99 98 98 99 102 104 107 111 113 116 115 115 115 118 118 110 108 110 106 101 101 105 111 113 115 118 118 119 123 127 127 127 124 121 114 109 110 108 110 112 109 106 103
150 148 144 139 137 137 139 138 137 138 137 136 137 136 138 140 142 142 142 140 139 139 138 138 137 134 132 130 130 126 120 118 115 112 109 106 104 101 98 97 96 96 97 99 100 100 102 104 105 108 108 108 106 107 107 112 119 113 114 119 115 105 102 103 109 113 117 122 120 117 118 118 121 123 119 114 109 108 109 108 111 110 105 103 100
151 151 147 142 141 140 141 141 140 140 139 137 137 138 140 140 141 141 140 139 139 139 139 138 136 134 133 132 127 120 117 117 115 111 107 103 99 96 94 93 93 92 92 93 96 98 100 103 106 106 105 102 98 99 102 108 118 118 121 127 121 111 105 102 104 109 112 121 126 126 122 120 122 122 116 110 109 110 109 109 108 105 103 102 100
153 153 150 146 143 142 143 143 143 142 141 138 137 139 140 139 138 138 138 138 139 140 139 137 136 135 133 129 122 117 116 117 115 110 104 99 95 92 90 88 86 84 84 86 89 93 95 98 100 103 103 98 95 97 104 110 117 120 125 131 126 117 112 106 103 106 109 115 127 134 129 124 123 121 117 112 112 113 110 107 105 104 105 103 102
154 154 153 149 145 143 144 145 145 144 141 139 139 139 139 138 137 137 138 139 140 140 139 137 136 133 129 124 120 119 118 118 114 106 100 96 94 91 87 84 81 80 80 81 83 88 92 93 94 99 101 98 98 100 104 106 116 121 124 133 129 122 119 111 102 102 106 106 115 128 130 128 123 122 120 116 114 114 111 108 106 104 105 105 105
156 156 156 152 147 147 148 148 146 145 143 142 142 141 139 139 139 139 140 141 141 139 137 135 132 128 125 124 123 122 122 120 111 101 96 94 93 88 84 81 80 79 78 81 83 86 89 92 93 95 97 96 97 101 102 101 111 118 120 130 128 121 121 118 106 99 102 104 108 118 127 130 125 126 126 122 119 116 113 110 106 103 103 105 105
157 157 158 154 150 150 151 150 149 148 147 146 145 144 142 142 141 141 143 142 141 138 135 132 127 126 126 127 125 126 126 119 109 100 95 92 89 85 83 81 80 79 78 80 82 84 85 89 93 95 95 93 95 100 99 95 107 117 119 123 124 120 117 119 112 102 102 106 109 113 121 130 127 127 129 126 125 121 117 112 107 104 103 103 106
157 157 158 155 153 153 154 153 151 151 150 149 149 147 145 145 145 145 146 143 141 138 135 130 126 127 130 129 129 129 125 119 112 103 94 90 87 85 83 80 78 77 77 79 79 78 77 80 86 93 95 96 98 98 94 94 104 116 120 122 124 123 115 116 114 105 104 107 110 114 117 123 126 128 129 130 131 125 120 116 112 106 103 104 108
158 158 157 157 156 155 156 155 153 153 153 152 152 150 149 148 148 148 147 145 142 140 135 130 128 130 132 131 131 128 124 123 117 106 95 89 87 83 78 74 72 77 80 78 77 73 70 71 76 87 92 97 98 93 91 95 104 113 120 123 121 122 116 116 118 111 106 109 111 115 117 117 123 128 129 132 133 127 122 119 116 110 106 107 110
159 158 158 158 156 157 157 157 155 156 155 155 155 153 152 151 150 150 149 147 145 143 138 134 132 133 134 133 133 130 128 126 120 111 98 89 87 81 74 70 70 77 82 79 79 75 71 71 75 85 91 96 95 93 94 100 111 117 120 122 117 116 114 113 122 121 113 112 113 117 118 116 120 126 129 131 131 129 127 121 117 113 109 107 110
160 159 159 158 156 158 158 158 158 158 158 157 157 156 156 154 154 154 152 152 151 147 142 138 137 137 137 136 136 133 131 130 126 118 102 91 87 82 74 71 73 77 81 82 82 79 76 75 78 85 94 100 100 99 99 104 113 118 120 122 117 117 115 112 123 128 121 114 115 118 120 120 121 126 130 130 130 132 134 128 121 119 114 108 109
162 161 159 157 156 159 159 159 160 160 161 161 161 160 159 158 157 158 158 158 156 151 146 143 143 143 141 141 142 138 135 136 133 124 105 93 89 82 76 73 78 82 84 85 85 82 80 80 82 86 93 101 106 107 107 107 104 108 118 124 119 115 117 115 121 130 124 114 118 121 120 123 127 131 132 131 134 139 140 135 129 126 122 115 111
163 161 160 158 158 160 160 161 162 162 163 164 164 164 163 162 162 162 163 164 161 156 151 149 150 149 148 148 146 142 143 144 138 128 106 94 90 81 76 75 80 87 88 86 86 86 85 84 85 88 91 97 103 104 105 104 97 101 112 122 122 115 116 116 120 127 121 111 118 125 122 123 130 136 136 138 142 144 142 137 133 131 131 126 119
163 162 162 160 158 160 162 162 164 164 165 166 167 168 167 167 168 169 170 171 168 163 159 157 157 156 156 154 149 148 151 149 141 129 107 96 91 81 76 76 82 89 90 87 87 89 90 90 89 91 92 95 97 98 99 98 96 100 108 113 118 113 111 116 121 127 121 111 117 128 128 125 130 136 138 142 144 141 139 138 138 139 140 135 128
163 163 162 161 158 160 163 164 165 164 166 168 170 172 172 174 176 177 179 180 177 171 167 166 165 163 164 159 155 156 157 152 144 131 109 99 93 82 76 77 84 90 91 88 88 91 94 96 96 96 96 97 96 96 96 97 97 99 106 107 108 105 100 110 123 129 123 113 116 127 134 133 134 137 138 140 143 143 143 144 144 146 147 142 135
164 164 162 161 160 161 164 166 166 166 167 169 171 173 176 180 181 184 186 187 185 179 175 172 171 171 171 164 163 164 161 153 143 133 114 104 94 83 77 78 88 92 93 91 89 93 98 100 99 98 96 95 94 94 95 97 100 100 104 107 106 102 94 101 120 132 128 114 115 123 134 140 141 140 141 142 143 144 146 148 149 150 152 151 146
167 165 163 162 162 162 165 169 168 167 169 170 172 173 177 180 182 186 188 190 188 184 180 176 176 178 176 171 170 169 163 156 145 137 119 108 95 86 82 83 93 97 98 93 90 94 100 103 100 97 90 86 86 89 93 95 100 104 106 108 106 106 99 96 109 127 133 121 117 123 132 141 148 146 146 146 146 146 148 152 154 154 154 155 155
169 169 166 165 166 165 168 171 170 171 171 171 174 176 177 180 182 184 186 189 187 183 182 180 181 183 182 178 177 174 168 161 151 142 126 114 103 95 90 91 100 103 103 96 90 93 101 105 102 96 88 85 85 86 88 88 93 101 108 110 107 108 107 100 101 116 126 127 125 126 131 139 150 152 151 152 151 153 154 156 156 155 154 157 160
171 171 170 170 170 170 172 173 174 175 175 176 180 180 181 182 182 183 184 185 184 184 184 186 187 186 186 183 182 179 175 168 155 146 134 122 112 103 97 98 108 110 110 101 93 95 103 108 104 96 89 87 86 87 85 83 88 97 105 112 111 107 107 106 105 113 120 128 135 138 138 139 149 155 157 159 158 159 160 160 160 159 158 161 164
173 174 174 174 174 174 175 176 178 179 181 183 185 183 184 184 183 184 184 184 185 187 188 190 191 189 188 186 187 186 179 170 158 151 141 128 119 112 108 109 118 121 119 113 105 104 108 111 105 95 88 81 77 81 82 82 88 94 98 105 111 110 108 109 108 115 123 132 141 149 153 146 147 155 162 164 163 164 164 164 165 164 161 164 167
174 176 176 178 178 177 179 180 181 183 185 186 187 186 185 186 185 186 187 189 189 189 190 192 193 191 190 189 190 186 177 168 159 156 145 132 126 121 124 125 127 130 130 128 120 113 113 113 107 97 93 83 69 71 77 83 89 93 97 104 109 106 106 115 123 123 122 134 144 149 160 159 149 153 164 168 168 170 169 167 168 168 166 168 171
175 177 179 180 180 181 182 183 185 186 187 188 189 188 186 187 188 189 191 191 190 191 193 193 194 194 193 191 188 182 175 168 162 158 150 139 133 129 132 134 131 133 137 137 127 119 117 113 107 99 97 92 80 68 74 88 91 90 95 110 113 102 103 119 141 141 125 131 147 151 159 163 159 157 164 170 173 175 175 172 171 174 173 174 175
178 178 180 182 184 184 185 186 187 187 189 190 190 189 189 189 190 192 192 192 192 193 195 196 195 196 195 190 183 179 174 169 167 162 159 154 146 140 133 134 135 135 140 139 130 123 113 105 101 95 92 94 97 86 87 97 91 85 88 102 106 91 91 110 139 155 150 142 140 149 161 164 168 169 169 174 177 180 180 178 176 177 179 179 180
181 181 181 184 186 186 187 188 189 189 189 190 190 190 190 191 191 192 193 193 194 195 197 197 195 195 193 188 181 177 174 172 174 173 170 169 160 146 134 135 142 141 142 141 138 135 120 107 100 99 95 92 107 108 108 109 95 86 89 98 98 83 77 88 121 150 160 160 148 144 166 164 168 174 176 178 179 183 184 185 184 182 183 183 184
183 183 184 185 187 187 188 187 189 189 188 189 188 190 192 192 192 192 195 195 196 196 195 195 193 192 190 186 182 178 176 177 182 186 179 173 165 150 140 141 147 148 151 154 152 149 141 132 114 105 104 96 109 119 123 124 111 99 100 108 103 86 74 70 94 132 145 152 156 158 178 178 171 174 180 183 184 186 187 191 190 188 188 187 187
186 187 187 187 188 188 189 188 189 189 188 189 188 191 193 194 193 193 195 196 197 196 193 193 190 189 189 186 184 181 179 180 187 193 185 175 171 160 151 149 154 159 165 170 170 171 171 153 125 110 109 118 145 149 147 145 139 118 107 125 128 114 103 79 82 108 130 136 142 153 177 199 186 176 182 189 189 188 190 195 194 191 192 193 192
188 189 188 188 188 189 190 190 190 190 190 191 191 194 196 197 196 194 195 195 195 195 193 191 188 188 189 187 185 184 183 182 185 190 183 178 179 174 163 159 161 165 170 176 181 194 205 123 98 111 114 152 194 188 167 162 169 133 91 121 132 117 133 130 95 93 109 115 114 131 162 189 189 181 184 192 196 194 194 197 197 195 195 198 197
190 190 190 190 190 191 192 194 193 193 193 193 195 197 198 198 197 197 195 194 195 194 193 191 190 190 190 189 187 187 188 187 187 186 181 181 185 184 178 172 170 171 176 181 189 212 241 18 86 115 119 171 199 197 181 178 171 130 89 110 116 98 142 150 129 103 99 93 85 90 130 186 194 190 189 194 202 201 200 198 196 197 198 201 202
193 191 192 193 193 194 194 197 196 196 196 196 197 198 199 199 199 198 194 195 196 195 195 194 193 193 192 193 191 190 190 191 192 191 186 185 190 195 192 187 184 186 191 195 206 228 255 287 97 115 116 216 206 192 193 205 183 148 96 109 112 82 162 176 168 131 101 89 85 86 94 147 189 194 198 199 205 205 204 202 198 198 200 202 204
195 194 195 194 194 196 196 198 197 197 197 198 199 199 200 200 199 198 195 196 196 195 197 198 197 196 195 195 197 196 192 193 196 197 193 190 195 199 198 200 202 202 206 214 229 242 251 266 278 328 326 228 208 193 204 221 202 192 126 27 353 62 128 206 214 202 164 141 128 106 93 93 157 191 201 202 208 209 208 208 203 201 203 205 203
197 197 197 196 195 197 198 198 198 199 199 200 201 200 201 201 199 198 197 198 197 198 199 200 201 201 197 197 202 200 198 199 198 200 200 200 201 201 205 211 215 217 222 229 239 248 255 271 277 291 294 221 206 201 214 216 201 200 179 325 297 291 331 207 209 222 226 174 167 152 107 73 105 172 202 208 213 213 214 212 208 206 208 210 206
200 201 199 199 197 198 199 199 199 199 200 202 202 201 202 200 199 198 198 198 198 200 201 202 204 204 200 200 205 205 205 206 203 204 207 212 210 206 214 218 223 230 234 239 243 252 257 270 277 280 281 226 205 207 219 214 206 214 226 277 276 260 256 237 214 227 246 201 183 185 184 74 89 103 190 212 217 219 223 218 214 217 216 217 214
203 203 203 202 200 201 200 200 201 201 201 202 202 203 202 199 199 199 199 199 200 201 202 204 205 205 204 203 207 209 211 213 213 213 213 219 219 217 224 224 231 237 241 249 251 257 262 269 276 275 271 237 214 215 224 226 221 228 251 260 241 244 254 248 229 221 230 199 185 197 215 227 138 90 85 206 218 222 231 226 218 226 228 225 221
204 204 206 205 203 203 202 202 202 202 202 202 204 204 202 200 199 199 200 201 202 203 204 205 206 205 206 208 209 210 214 218 222 223 221 225 226 228 235 234 238 243 247 255 258 262 267 271 274 269 258 241 228 225 229 235 231 229 259 244 210 231 248 237 201 172 198 187 180 195 208 225 234 246 14 15 242 225 235 230 215 222 229 230 226
206 206 207 206 204 204 204 204 203 203 203 203 205 204 203 202 200 200 201 202 204 205 205 206 205 205 208 212 212 211 215 221 225 228 228 231 235 241 246 245 245 249 254 259 262 265 270 272 272 265 250 243 237 233 236 240 235 225 240 226 202 214 217 211 170 150 172 175 169 169 157 130 126 242 276 308 280 232 235 231 221 221 224 231 231
207 207 207 207 205 205 206 205 204 204 203 205 206 205 205 204 202 202 202 204 206 207 207 206 206 206 209 212 212 215 218 223 226 230 233 236 242 249 252 253 255 256 259 261 264 266 270 270 269 262 251 250 241 235 240 241 237 232 228 220 210 206 181 143 175 171 170 168 159 144 119 83 69 62 49 269 233 236 243 238 230 228 225 229 234
208 208 208 207 206 206 207 207 207 205 205 206 206 206 206 205 204 204 204 206 208 210 209 208 208 208 211 213 214 218 222 225 228 232 238 241 247 251 252 256 258 258 259 261 265 266 268 267 263 258 252 252 243 234 238 238 236 238 231 222 216 210 192 173 266 222 172 165 159 142 113 74 65 59 53 45 327 249 253 247 240 236 233 232 235
210 210 209 208 207 207 208 208 208 207 207 207 206 206 207 207 206 205 208 209 210 212 211 212 213 213 215 215 217 222 225 229 233 238 242 244 248 250 251 254 254 255 257 260 264 263 264 263 256 252 248 248 242 232 231 233 235 236 233 227 218 215 211 207 248 257 186 166 165 155 125 77 67 57 48 35 11 284 250 256 251 242 240 237 235
214 212 211 211 209 209 210 210 210 209 209 209 208 207 208 209 207 207 210 213 213 213 214 218 218 219 221 220 222 226 230 235 239 243 245 245 247 248 249 251 253 255 258 260 262 261 261 260 253 247 245 242 235 228 224 226 232 235 234 232 223 219 228 229 236 243 221 197 197 192 197 140 59 48 38 29 18 337 272 265 271 255 244 242 237
217 216 215 214 212 212 212 212 212 211 210 210 209 208 209 209 208 208 211 214 215 214 216 220 221 223 224 224 226 230 236 240 243 245 244 243 244 246 248 250 253 255 258 260 259 259 260 259 251 247 246 236 225 223 222 227 240 245 239 233 222 213 227 246 235 226 221 224 234 233 231 237 36 40 36 30 26 9 322 259 273 283 258 247 241
218 219 218 218 216 215 215 214 214 213 212 211 210 208 208 208 208 210 213 214 215 215 217 220 221 222 223 225 228 232 238 240 242 242 240 240 240 243 246 249 253 256 260 260 256 257 259 258 251 246 240 223 214 218 223 234 249 248 231 221 213 206 220 242 228 217 217 223 232 236 239 249 308 31 46 33 19 14 15 229 240 264 266 259 250
218 219 220 219 219 219 218 218 216 215 214 213 213 210 209 210 211 212 214 216 216 217 220 221 222 223 224 227 229 232 235 235 237 238 238 239 240 243 247 250 254 258 260 255 252 255 258 257 252 243 229 212 208 218 228 238 242 229 212 209 208 206 216 221 199 197 208 217 226 233 236 245 274 345 59 37 11 0 0 1 317 270 276 272 262
219 221 221 220 220 220 221 221 220 218 216 215 215 214 212 212 215 216 217 218 219 221 224 226 226 226 227 228 229 231 231 232 234 235 237 238 242 247 250 253 256 258 256 250 250 255 255 254 246 233 220 212 215 224 229 226 215 204 202 206 206 204 204 199 184 187 205 216 224 229 230 239 257 249 74 36 12 1 8 30 66 47 9 315 277
218 220 220 220 221 221 221 221 222 221 218 215 216 216 215 215 217 220 221 222 223 224 227 229 229 228 228 228 228 228 229 232 234 236 237 238 242 247 251 254 257 258 253 249 251 253 252 248 237 226 219 221 227 223 211 201 193 190 198 200 199 198 193 189 189 193 206 214 221 227 229 236 246 241 217 41 30 35 64 81 78 37 10 343 287
217 219 220 221 222 222 222 222 222 222 220 217 216 217 217 217 218 219 221 224 225 226 227 227 226 226 226 226 226 226 227 230 232 234 236 238 242 246 251 254 256 255 252 250 250 247 245 240 233 230 228 230 227 211 197 194 191 191 201 201 197 197 194 190 192 199 208 209 214 221 225 230 233 237 227 82 70 91 114 94 53 23 9 351 281
217 221 222 223 223 223 222 222 223 223 222 220 217 216 217 218 218 218 219 220 221 223 224 224 223 223 225 225 226 227 227 228 230 233 235 238 242 245 249 253 253 251 249 248 244 241 240 236 234 235 232 228 217 204 198 197 195 197 206 210 205 202 201 198 196 198 203 207 212 213 217 226 224 226 214 138 110 118 122 58 31 22 21 18 346
219 222 223 223 223 223 222 222 223 224 224 222 218 216 216 218 220 221 222 221 222 222 223 225 225 226 227 228 228 229 229 231 232 234 236 238 241 245 248 251 250 246 245 244 241 240 239 235 235 235 232 222 209 204 200 198 200 202 209 215 214 213 214 210 204 200 196 201 208 210 214 220 219 219 211 185 158 142 118 8 15 17 28 36 32
219 220 220 222 223 223 224 224 224 224 223 222 220 217 216 217 220 223 225 226 227 226 225 225 227 229 231 231 231 232 234 235 235 235 236 237 240 243 246 248 245 241 242 242 241 240 236 232 231 228 223 215 210 208 202 201 203 205 211 218 219 222 228 218 209 209 204 198 202 207 213 215 216 218 209 207 214 199 245 321 352 5 18 32 39
218 218 219 222 222 222 223 224 225 225 223 221 221 221 220 220 221 222 225 228 230 230 230 229 229 230 232 232 233 235 237 238 237 235 233 235 240 242 245 246 242 240 242 242 239 237 233 231 229 221 212 209 211 212 207 207 209 210 214 217 219 222 225 220 209 210 214 206 203 207 212 214 214 216 211 213 224 222 241 280 308 341 4 12 21
217 218 220 220 221 221 221 223 224 225 225 223 222 222 222 222 224 224 226 228 230 231 233 233 232 232 232 233 234 235 237 236 235 233 231 235 239 241 243 242 240 241 242 241 238 232 228 228 224 214 207 208 213 215 213 214 217 219 218 215 216 218 218 218 210 206 211 213 211 212 215 217 217 216 216 221 229 229 240 263 282 310 342 358 4
216 217 218 218 219 219 220 222 223 225 226 225 224 224 223 223 225 228 228 229 230 231 232 232 233 232 232 232 232 232 232 232 231 230 230 233 238 240 240 238 238 240 240 240 238 230 225 224 216 207 207 211 215 221 223 221 220 225 226 219 216 218 220 222 218 213 212 213 214 215 217 221 224 225 227 229 231 232 240 251 271 300 323 338 347